SBIRS GEO-3 (USA 282)

Last updated on Sun Jun 21 2026 00:03:07 GMT+0000 (Coordinated Universal Time)

1 43162U 18009A 26171.39700601 .00000123 00000+0 00000+0 0 9991 2 43162 2.1865 12.2926 0001981 68.2374 171.5933 1.00271852 30874
UTC large
Height (km)
Speed (km/s)
/
Latitude / Longitude
Inclination (degrees)
Orbital Period (minutes)
Azimuth
Elevation
Range (km)
Doppler Factor

Next 0 passes for location: London (51.5072 / 0.1276)

No passes found over London.
SBIRS GEO-3 (USA 282)